Regional Weather Roundup
Issued by NWS Albany, NY

Home | Current Version | Previous Version | Graphics & Text | Print | Product List | Glossary Off
Versions: 1 2 3 4 5 6 7 8 9 10 11 12 13 14 15 16 17 18 19 20 21 22 23 24 25 26 27 28

000
ASUS41 KALY 160410
RWRALY

NEW YORK STATE HOURLY WEATHER ROUNDUP
NATIONAL WEATHER SERVICE ALBANY NY
1100 PM EST FRI DEC 15 2017

NOTE: "FAIR" INDICATES FEW OR NO CLOUDS BELOW 12,000 FEET WITH NO
SIGNIFICANT WEATHER AND/OR NO OBSTRUCTIONS TO VISIBILITY.

NYZ032-033-038>043-046>054-057>066-NYZ062>081-082-084-160500-
EAST


CITY           SKY/WX    TMP DP  RH WIND       PRES   REMARKS
ALBANY         FLURRIES  21  15  78 S7        29.85S WCI  12
GLENS FALLS    CLOUDY    10   8  92 CALM      29.83F
POUGHKEEPSIE   CLOUDY    22  16  78 SW6       29.88S WCI  14
NEWBURGH       MOCLDY    18  16  93 W7        29.87S WCI   8
MONTGOMERY     CLOUDY    18  14  84 SW6       29.86S WCI  10
WHITE PLAINS   PTCLDY    20  17  88 W5        29.87S WCI  13
ISLIP          PTCLDY    24  21  88 W9        29.89S WCI  14
NEW YORK CITY  PTCLDY    26  17  68 W13       29.91F WCI  15
CENTRAL PARK   PTCLDY    24  17  74 W9        29.92F WCI  14
$$

NYZ005>009-017-018-044>046-055-056-160500-
CENTRAL


CITY           SKY/WX    TMP DP  RH WIND       PRES   REMARKS
FULTON         MOCLDY    23  17  78 SW8       29.77S WCI  14
SYRACUSE       MOCLDY    23  17  78 SW13      29.77F WCI  11
ROME           LGT SNOW  19  15  84 E9        29.81F FOG     WCI   8
ELMIRA         CLOUDY    25  15  66 SW7       29.81R WCI  17
BINGHAMTON     CLOUDY    18  12  77 SW10      29.76R WCI   6
MONTICELLO     FLURRIES  14  13  95 W3        29.80S
$$

NYZ026>034-041>043-087-160500-
NORTH


CITY           SKY/WX    TMP DP  RH WIND       PRES   REMARKS
WATERTOWN      LGT SNOW  22  18  85 S12G21    29.71F FOG     WCI  10
FORT DRUM      NOT AVBL
OGDENSBURG     FAIR      21  16  79 S5        29.73F WCI  15
MASSENA        CLOUDY    17  14  88 E3        29.77F
SARANAC LAKE   CLOUDY    14  11  87 MISG      29.67F
PLATTSBURGH    CLOUDY    20  14  77 S3        29.79F
$$

NYZ001>004-010>016-019>021-085-160500-
WEST


CITY           SKY/WX    TMP DP  RH WIND       PRES   REMARKS
NIAGARA FALLS  CLEAR     25  13  60 W21G31    29.81R WCI  11
BUFFALO        PTCLDY    24  13  62 W15G24    29.80R WCI  11
DUNKIRK        LGT SNOW  26  18  71 W22G36    29.86R WCI  12
JAMESTOWN      LGT SNOW  19  18  93 SW15      29.81R FOG     WCI   5
WELLSVILLE     LGT SNOW  21  16  81 W12G23    29.75R VSB 1   WCI   9
ROCHESTER      FLURRIES  26  17  68 W16       29.79S WCI  14
PENN YAN       LGT SNOW  24  17  74 SW8       29.80R WCI  15
$$

             KEY
       WCI = WIND CHILL INDEX
       VSB = VISIBILITY
       HX  = HEAT INDEX
$$




USA.gov is the U.S. government's official web portal to all federal, state and local government web resources and services.